OPS 4682 DEB, 38363

Orbit data source: Space-Track

OPS 4682 DEB, 38363 is space debris in LEO originally from a launch on Sat, 03 Apr 1965 UTC launched from the Air Force Western Test Range (AFWTR). Debris objects in space refer to the collection of defunct objects orbiting the Earth. Examples of debris include non-operational satellites, rocket bodies, and fragments generated from explosions, collisions, or faulty payload assembly.

Loading next visibility...
Identifier
38363, 1965-027BQ
Orbit
LEO
Country
Flag of USUS
Related business
Manufacturer
Unknown
Mission
Spacecraft
Bus & Motor
Unknown
Mass
Unknown
Launch date (UTC)
1965-04-03 (61 years ago)
Launch vehicle
Unknown
Launch site
Air Force Western Test Range (AFWTR)
Object type
Payload
Rocket body
Debris
Shape & HBR
Unknown shape, 0.1 m
Radar Cross Section
Medium (>0.1 m² and <1 m²)

Expand to show TLE details & history
Last TLE update: 2 days ago

TLE from 2 days ago
0 OPS 4682 DEB
1 38363U 65027BQ  26206.91104439  .00001039  00000-0  33568-2 0  9990
2 38363  90.2437  10.4587 0031864 102.3144 258.1549 13.01309954557198
Epoch: 2026-07-25T21:51Z
TLE epoch observation values (Epoch: 2026-07-25T21:51:54.235Z)
Latitude
-0.00003°
Longitude
98.86618°
Altitude
1,264.913 km
Speed
7.221 km/s
True Right ascension
00h 41m 50s
True Declination
0° 00' 00"
Sunlit
Object was in daylight at epoch
Visualization orbit readout
Latitude
Unknown
Longitude
Unknown
Altitude
Unknown
Speed
Unknown
Apparent Right ascension
Unknown
Apparent Declination
Unknown
Sunlit
N/A
Visualization observer readout
Local Sidereal Time
14:15:32
Azimuth
Unknown
Elevation
Unknown
Doppler factor
Unknown
Orbital elements
Apogee altitude
1,278.403 km
Perigee altitude
1,229.764 km
Semi-major axis
7,632.22 km
Eccentricity
0.00319
Inclination
90.2437°
RAAN
10.4587°
Arg. of periapsis
102.3144°
True anomaly
257.79783°
Mean anomaly
258.1549°
Eccentric anomaly
257.97634°
Mean motion
3.25512 °/min
Orbital period
110.6 mins
BSTAR
0.0033568
Loading maneuver chart data...
Computing Atmospheric mass density...
Loading historical data...
Loading historical data...
Loading historical data...
Loading historical data...
Loading historical data...
Loading historical data...
Loading historical data...

Documentation

Showing up to 5 results
|